Home > Weather > Manchester > Past weeks

Flag for United Kingdom Weather for the Past 2 Weeks in Manchester, England, United Kingdom

Now
43 °F

Scattered clouds.


Feels Like: 36 °F
Forecast: N/A
Wind: 13 mph from West

Location: Manchester Airport

Current Time: Feb 9, 2016 at 3:05:48 PM

Latest Report: Feb 9, 2016 at 2:20 PM


Visibility: N/A

Pressure: 29.00 "Hg

Humidity: 71%

Dew point: 34 °F

Location of ManchesterLocation

Historic Weather in Manchester — Graph

°F

Manchester Temperature Yesterday

Maximum temperature yesterday: 46 °F (at 12:50 PM)
Minimum temperature yesterday: 41 °F (at 12:20 AM)
Average temperature yesterday: 43 °F

High & Low Weather Summary for the Past Weeks

 TemperatureHumidityPressure
High57 °F (Jan 25, 1:50 PM)100% (Jan 31, 11:20 AM)30.27 "Hg (Jan 31, 11:20 AM)
Low34 °F (Jan 28, 5:20 AM)57% (Jan 30, 2:50 PM)28.71 "Hg (Feb 8, 7:20 AM)
Average45 °F82%29.65 "Hg
* Reported Jan 25 1:20 PM — Feb 9 1:20 PM, Manchester, Weather by CustomWeather, © 2016

Note: Actual official high and low records may vary slightly from our data, if they occured in-between our weather recording intervals... More about our weather records

Advertising

Manchester Weather History for the Previous 24 Hours

 ConditionsComfort  
Time TempWeatherWind HumidityBarometerVisibility
1:20 PM
Tue, Feb 9
43 °FScattered clouds.12 mph71%29.00 "HgN/A
12:50 PM41 °FScattered clouds.13 mph70%29.00 "HgN/A
12:20 PM41 °FScattered clouds.16 mph70%29.00 "HgN/A
11:50 AM41 °FPassing clouds.15 mph70%29.00 "HgN/A
11:20 AM41 °FPassing clouds.16 mph70%29.03 "HgN/A
10:20 AM39 °FPassing clouds.10 mph81%29.03 "HgN/A
9:50 AM37 °FPassing clouds.10 mph81%29.03 "HgN/A
9:20 AM37 °FScattered clouds.12 mph81%29.03 "HgN/A
8:50 AM36 °FPassing clouds.9 mph87%29.03 "HgN/A
8:20 AM34 °FSunny.9 mph93%29.03 "Hg10 mi
7:50 AM34 °FPassing clouds.10 mph93%29.06 "HgN/A
7:20 AM36 °FPassing clouds.10 mph87%29.06 "HgN/A
6:50 AM36 °FPassing clouds.10 mph87%29.06 "HgN/A
6:20 AM36 °FPassing clouds.12 mph87%29.06 "HgN/A
5:50 AM36 °FPassing clouds.10 mph87%29.06 "HgN/A
5:20 AM36 °FClear.13 mph87%29.06 "Hg10 mi
4:50 AM37 °FPassing clouds.12 mph81%29.09 "HgN/A
4:20 AM37 °FClear.12 mph81%29.09 "Hg10 mi
3:50 AM39 °FPassing clouds.13 mph75%29.12 "HgN/A
3:20 AM39 °FPassing clouds.15 mph81%29.12 "HgN/A
2:50 AM39 °FClear.16 mph81%29.12 "Hg10 mi
2:20 AM39 °FPassing clouds.15 mph81%29.15 "HgN/A
1:50 AM41 °FPassing clouds.18 mph76%29.15 "HgN/A
1:20 AM41 °FPartly cloudy.16 mph76%29.15 "HgN/A
12:50 AM41 °FPartly cloudy.20 mph76%29.15 "HgN/A
12:20 AM41 °FPartly cloudy.15 mph76%29.15 "HgN/A
11:50 PM
Mon, Feb 8
41 °FPassing clouds.17 mph76%29.15 "HgN/A
11:20 PM41 °FPassing clouds.18 mph81%29.15 "HgN/A
10:20 PM43 °FPartly cloudy.18 mph76%29.15 "HgN/A
9:50 PM43 °FPartly cloudy.18 mph81%29.15 "HgN/A
9:20 PM43 °FPassing clouds.18 mph81%29.15 "HgN/A
8:50 PM43 °FLight rain. Passing clouds.20 mph81%29.15 "HgN/A
8:20 PM43 °FPartly cloudy.16 mph87%29.12 "HgN/A
7:50 PM45 °FPassing clouds.24 mph81%29.09 "HgN/A
7:20 PM43 °FLight rain. Passing clouds.26 mph87%29.09 "HgN/A
6:50 PM45 °FLight rain. Partly cloudy.23 mph87%29.06 "HgN/A
6:20 PM45 °FLight rain. Partly cloudy.23 mph87%29.06 "Hg6 mi
5:50 PM45 °FLight rain. Partly cloudy.26 mph87%29.03 "Hg6 mi
5:20 PM45 °FLight rain. Overcast.23 mph87%29.00 "HgN/A
4:50 PM43 °FHeavy rain. Mostly cloudy.28 mph87%28.97 "Hg3 mi
4:20 PM45 °FLight rain. Partly sunny.26 mph87%28.94 "HgN/A
3:50 PM45 °FBroken clouds.25 mph93%28.91 "HgN/A
3:20 PM45 °FLight rain. Broken clouds.22 mph93%28.88 "HgN/A
Weather by CustomWeather, © 2016

See weather overviewHow to use our weather pages